Overview Statistics Trail Chart Weather Telemetry Raw packets
 

This is the latest recevied weather packets stored in our database for station/object 4S6DRJ-13. If no packets are shown the sender has not sent any weather packets the latest 10 day(s).

<< 525 526 527 528 529 530 531 >>
Time Temp. Humidity Pressure Rain* Wind** Luminosity Snow
1787644241 30.56° C 73% 1009.5 hPa 0.25 mm 2.68 m/s, 260° 884 W/m² -
1787644179 30.56° C 73% 1009.4 hPa 0.25 mm 2.24 m/s, 208° 1133 W/m² -
1787644118 30.56° C 72% 1009.5 hPa 0.25 mm 3.13 m/s, 220° 475 W/m² -
1787644057 30.56° C 73% 1009.4 hPa 0.25 mm 3.13 m/s, 189° 1124 W/m² -
1787643996 31.11° C 73% 1009.4 hPa 0.25 mm 2.68 m/s, 356° 1127 W/m² -
1787643935 30.56° C 74% 1009.4 hPa 0.25 mm 1.79 m/s, 150° 1135 W/m² -
1787643874 30.56° C 74% 1009.2 hPa 0.25 mm 2.24 m/s, 237° 551 W/m² -
1787643813 30.56° C 74% 1009.3 hPa 0.25 mm 1.34 m/s, 119° 437 W/m² -
1787643752 30.56° C 74% 1009.4 hPa 0.25 mm 1.79 m/s, 216° 1133 W/m² -
1787643692 30.56° C 74% 1009.4 hPa 0.25 mm 1.34 m/s, 252° 663 W/m² -
1787643630 30.56° C 74% 1009.5 hPa 0.25 mm 2.68 m/s, 331° 536 W/m² -
1787643569 30.56° C 75% 1009.5 hPa 0.25 mm 2.68 m/s, 251° 574 W/m² -
1787643508 30.56° C 75% 1009.5 hPa 0.25 mm 2.24 m/s, 21° 1129 W/m² -
1787643447 30.56° C 76% 1009.5 hPa 0.25 mm 3.13 m/s, 270° 1129 W/m² -
1787643386 30.56° C 76% 1009.6 hPa 0.25 mm 2.68 m/s, 256° 1124 W/m² -
1787643325 30.56° C 75% 1009.6 hPa 0.25 mm 1.79 m/s, 292° 1127 W/m² -
1787643264 30.56° C 76% 1009.5 hPa 0.25 mm 2.24 m/s, 283° 1129 W/m² -
1787643203 30.56° C 76% 1009.7 hPa 0.25 mm 1.79 m/s, 274° 1134 W/m² -
1787643142 30.56° C 76% 1009.6 hPa 0.25 mm 1.79 m/s, 116° 1132 W/m² -
1787643082 30° C 77% 1009.5 hPa 0.25 mm 1.34 m/s, 310° 1129 W/m² -
1787643020 30° C 77% 1009.6 hPa 0.25 mm 3.13 m/s, 296° 1129 W/m² -
1787642960 30° C 77% 1009.7 hPa 0.25 mm 1.79 m/s, 117° 1128 W/m² -
1787642898 30° C 77% 1009.7 hPa 0.25 mm 1.79 m/s, 324° 1108 W/m² -
1787642837 30° C 77% 1009.7 hPa 0.25 mm 2.68 m/s, 202° 760 W/m² -
1787642776 29.44° C 77% 1009.7 hPa 0.25 mm 2.68 m/s, 238° 1120 W/m² -

* Rain latest hour (hover to see other rain measurements)
** Current wind speed in m/s (hover to see current wind gust speed)